Regional Weather Roundup
Issued by NWS

Home | Current Version | Previous Version | Graphics & Text | Print | Product List | Glossary On
Versions: 1 2 3 4 5 6 7 8 9 10 11 12 13 14 15 16 17 18 19 20 21 22 23 24 25 26 27 28 29 30 31 32 33 34 35 36 37 38 39 40 41 42 43 44 45 46 47 48 49 50
000
ASUS43 KLOT 290902
RWRIL

ILLINOIS REGIONAL WEATHER ROUNDUP
NATIONAL WEATHER SERVICE CHICAGO/ROMEOVILLE IL
400 AM CDT SUN MAR 29 2015

NOTE: "FAIR" INDICATES FEW OR NO CLOUDS BELOW 12,000 FEET WITH NO
SIGNIFICANT WEATHER AND/OR OBSTRUCTIONS TO VISIBILITY.

* THESE STATIONS ARE NOT UNDER NWS QUALITY CONTROL. THEY ALSO MAY NOT
  REPORT WEATHER SUCH AS PRECIPITATION OR FOG.

ILZ001-002-007-009-015-016-024-291000-
NORTHWEST ILLINOIS

CITY           SKY/WX    TMP DP  RH WIND       PRES   REMARKS
MOLINE         FAIR      31  18  58 SE7       30.10F WCI  24
STERLING*      CLEAR     28  19  69 S6        30.13F WCI  22
$$

ILZ003-004-008-010-011-017-018-291000-
NORTH CENTRAL ILLINOIS

CITY           SKY/WX    TMP DP  RH WIND       PRES   REMARKS
ROCKFORD       CLEAR     28  17  63 S14       30.14F WCI  17
$$

ILZ005-006-012>014-019>023-291000-
NORTHEAST ILLINOIS

CITY           SKY/WX    TMP DP  RH WIND       PRES   REMARKS
CHICAGO-OHARE  MOCLDY    27  15  61 S10       30.17F WCI  17
CHICAGO-MIDWAY PTCLDY    30  14  51 S9        30.19F WCI  22
AURORA         CLEAR     28  16  60 S8        30.17F WCI  20
WAUKEGAN       PTCLDY    28  13  53 S14       30.15F WCI  17
DUPAGE AIRPORT CLEAR     26  15  63 S9        30.16F WCI  17
WHEELING       CLEAR     27  13  55 S12       30.18F WCI  17
NORTHERLY ISL    N/A     29  14  53 S12         N/A  WCI  19
$$

LMZ740>746-291000-
SOUTHERN LAKE MICHIGAN

STATION/POSITION SKY/WX   TEMP    WIND        PRES    VSBY  WAVE
                          AIR SEA DIR/SP/G                  HT/PER
                          (F)     (DEG/KT/KT) (MB)    (MI)  (FT/S)
HARRISON CRIB              30     180/ 19/ 22   N/A
BURNHAM HARBOR             29     160/  8/ 11   N/A
BURNS HARBOR               27     180/ 11/ 14 1024.4F
MICHIGAN CITY              27     150/ 10/ 14   N/A
$$

ILZ025>027-034>036-040-047-049-050-058-095>099-291000-
WEST-CENTRAL ILLINOIS

CITY           SKY/WX    TMP DP  RH WIND       PRES   REMARKS
QUINCY         CLEAR     34  21  59 S12       30.11F WCI  25
$$

ILZ028>032-037-038-041>044-048-051>054-059>061-291000-
CENTRAL ILLINOIS

CITY           SKY/WX    TMP DP  RH WIND       PRES   REMARKS
DECATUR        PTCLDY    31  20  63 S12       30.21F WCI  22
PEORIA         PTCLDY    33  19  56 S15       30.17F WCI  23
SPRINGFIELD    MOCLDY    33  20  58 S16G26    30.19F WCI  23
TAYLORVILLE    NOT AVBL
$$

ILZ033-039-045-046-055>057-062-063-291000-
EAST-CENTRAL ILLINOIS

CITY           SKY/WX    TMP DP  RH WIND       PRES   REMARKS
CHAMPAIGN      CLEAR     28  19  69 S12       30.22F WCI  18
MATTOON        CLEAR     29  18  63 S10       30.23F WCI  20
$$

ILZ079-100>102-291000-
SOUTHWEST ILLINOIS

CITY           SKY/WX    TMP DP  RH WIND       PRES   REMARKS
BELLEVILLE     CLEAR     31  21  67 SE8       30.21F WCI  24
CAHOKIA*       CLEAR     34  20  56 SE12      30.20F WCI  25
$$

ILZ064>066-069>071-074>076-080>082-084>086-088>090-092>094-291000-
SOUTH-CENTRAL ILLINOIS

CITY           SKY/WX    TMP DP  RH WIND       PRES   REMARKS
CARBONDALE     CLEAR     30  17  58 SE6       30.26F WCI  24
MT. VERNON     CLEAR     30  18  59 SE5       30.27F WCI  25
$$

ILZ067-068-072-073-078-083-087-091-291000-
SOUTHEAST ILLINOIS

CITY           SKY/WX    TMP DP  RH WIND       PRES   REMARKS
LAWRENCEVILLE  CLEAR     25  21  85 SE6       30.30F WCI  18
$$

ABBREVIATIONS USED IN REMARKS
   TC - TEMPERATURE IN CELSIUS
  WCI - WIND CHILL INDEX
   HX - HEAT INDEX
  VSB - VISIBILITY
$$



USA.gov is the U.S. government's official web portal to all federal, state and local government web resources and services.